Regional Weather Roundup
Issued by NWS Sterling, VA

Home | Current Version | Previous Version | Text Only | Print | Product List | Glossary Off
Versions: 1 2 3 4 5 6 7 8 9 10 11 12 13 14 15 16 17 18 19 20 21 22 23 24 25 26 27 28 29 30 31 32 33 34 35 36 37 38 39 40 41 42 43 44 45 46 47 48 49 50

145
ASUS41 KLWX 090710
RWRLWX

REGIONAL WEATHER ROUNDUP
NATIONAL WEATHER SERVICE BALTIMORE MD/WASHINGTON DC
200 AM EST TUE FEB 09 2016

Note: "FAIR" indicates few or no clouds below 12,000 feet
with no significant weather and/or obstructions to visibility.
 TC=TEMPERATURE CELSIUS

 * =Non NWS site. Station does not report precipitation (e.g. rain,
    snow, etc.), thunder, or fog.

DCZ001-MDZ009-015-VAZ040>042-051-053>054-090800-
WASHINGTON METRO

CITY           SKY/WX    TMP DP  RH WIND       PRES   REMARKS
WASHINGTON NAT LGT RAIN  38  34  85 E7        29.62F
DULLES         LGT RAIN  37  34  89 CALM      29.60F
ANDREWS AFB    CLOUDY    36  34  92 E6        29.59F
FT BELVOIR     LGT RAIN  37  34  87 VRB1      29.60F
QUANTICO       LGT RAIN  40  36  86 NE6       29.61F
COLLEGE PARK*  CLOUDY    37  36  93 CALM      29.62F
LEESBURG*      LGT RAIN  37  37 100 CALM      29.60F
MANASSAS*      CLOUDY    36  36 100 CALM      29.60F
GAITHERSBURG*  CLOUDY    36  30  80 SE5       29.63F

$$

MDZ006>007-011-014-090800-
BALTIMORE METRO

CITY           SKY/WX    TMP DP  RH WIND       PRES   REMARKS
BWI AIRPORT    FLURRIES  36  34  92 E6        29.62F
MD SCIENCE CTR   N/A     36  33  89 MISG      29.64F
MARTIN STATE   LGT RAIN  36  36 100 E6        29.66F
ANNAPOLIS      CLOUDY    36  34  92 E7        29.62F
FORT MEADE*    CLOUDY    36  34  93 E7        29.64F

$$

MDZ012-015-019>023-090800-
MARYLAND EASTERN SHORE

CITY           SKY/WX    TMP DP  RH WIND       PRES   REMARKS
OCEAN CITY     MOCLDY    40  35  83 E8        29.61F
SALISBURY      CLOUDY    37  35  92 E5        29.61F
BAY BRIDGE AP* DRIZZLE   36  34  93 CALM      29.63F
CAMBRIDGE*     CLOUDY    34  34 100 E3        29.61F
EASTON*        CLOUDY    36  36 100 E6        29.66F

$$

MDZ017>025-090800-
SOUTHERN MARYLAND

CITY           SKY/WX    TMP DP  RH WIND       PRES   REMARKS
PATUXENT RIVER CLOUDY    38  35  89 E10       29.60F
ST INIGOES     LGT RAIN  39  36  89 NE5       29.59F
LEONARDTOWN*   CLOUDY    36  34  93 E3        29.61F

$$

MDZ003>005-090800-
NORTH CENTRAL MARYLAND

CITY           SKY/WX    TMP DP  RH WIND       PRES   REMARKS
FREDERICK*     LGT RAIN  36  36 100 SE5       29.64F
HAGERSTOWN APT CLOUDY    37  33  85 S7        29.57F
WESTMINSTER*   LGT SNOW  34  34 100 SE7       29.59F

$$

MDZ501>502-090800-
WESTERN MARYLAND

CITY           SKY/WX    TMP DP  RH WIND       PRES   REMARKS
OAKLAND*       CLOUDY    27  27 100 W3        29.48F
CUMBERLAND*    CLOUDY    34  34 100 CALM      29.61F VSB 1

$$

VAZ025>031-090800-
SHENANDOAH VALLEY

CITY           SKY/WX    TMP DP  RH WIND       PRES   REMARKS
WINCHESTER*    CLOUDY    36  34  93 CALM      29.57F
FRONT ROYAL*   CLOUDY    36  34  93 CALM      29.56F
LURAY*         CLOUDY    34  34 100 CALM      29.55F
NEW MARKET*    CLOUDY    32  32  99 CALM      29.55F
STAUNTON*      CLOUDY    35  33  94 CALM      29.57S FOG
WAYNESBORO*    CLOUDY    34  27  76 SW8       29.54F WCI  27

$$

WVZ021-048>050-054>055-090800-
EASTERN WEST VIRGINIA PANHANDLE

CITY           SKY/WX    TMP DP  RH WIND       PRES   REMARKS
MARTINSBURG    CLOUDY    35  33  92 CALM      29.58F
PETERSBURG*    CLOUDY    33  32  96 CALM      29.57F

$$

VAZ036>039-050-090800-
CENTRAL FOOTHILLS

CITY           SKY/WX    TMP DP  RH WIND       PRES   REMARKS
CHARLOTTESVILL CLOUDY    36  35  96 CALM      29.57F FOG
CULPEPER*      MIX PCPN  33  33  99 CALM      29.60F
ORANGE*        CLOUDY    36  36 100 CALM      29.59F
GORDONSVILLE*  CLOUDY    35  35  99 CALM      29.57F
WARRENTON*     LGT RAIN  37  37  99 CALM      29.58F

$$

VAZ055>057-090800-
NORTH AND CENTRAL PIEDMONT

CITY           SKY/WX    TMP DP  RH WIND       PRES   REMARKS
FREDERICKSBRG* CLOUDY    37  37 100 CALM      29.58F
STAFFORD*      DRIZZLE   37  36  95 CALM      29.63F

$$

NCZ024-NYZ072-PAZ021-071-VAZ022-071-090800-
OTHER REGIONAL OBSERVATIONS

CITY           SKY/WX    TMP DP  RH WIND       PRES   REMARKS
NEW YORK CITY  CLOUDY    28  21  75 NE8       29.75S WCI  20
PHILADELPHIA   LGT SNOW  32  27  81 E8        29.69F FOG     WCI  25
PITTSBURGH     LGT SNOW  31  30  96 CALM      29.54F FOG
ROANOKE        MOCLDY    31  24  75 N3        29.60F
RICHMOND       CLOUDY    38  36  92 CALM      29.57F
RALEIGH        CLOUDY    37  36  96 CALM      29.61F

$$

ANZ530>537-090800-
MARINE OBSERVATIONS

STATION/POSITION TIME  TEMP    WIND        PRES
                       AIR SEA DIR/SP/G
                 (UTC) (F)     (DEG/KT/KT) (MB)
THOMAS PT LIGHT  NOT AVBL
BALT KEY BRIDGE  0600   36     100/ 10/ 12 1004.0F
COVE POINT       0600   37     160/  6/  9 1004.1F
LEWISETTA        0600   40 41  140/  9/ 11 1002.7F
SOLOMONS ISLAND  0600   39 41  100/  8/  9   N/A
PINEY POINT      0600          140/ 12/ 14   N/A

$$





USA.gov is the U.S. government's official web portal to all federal, state and local government web resources and services.